• Join FlightAware (Why Join?)
  • Login
  • US Flag 
01:02PM EST


 

Airport Tracker/Info


-or-


 

Live Flight TrackerFlight Track Log ✈ RPA3159 ✈ 19-May-2013 ✈ KBTV - KPHL

Flight Track Log - Related Links

Times and Time Zones

All times are in EDT time to prevent confusion due to time zone crossing. See the RPA3159 flight status page for this flight to view local times or setup timezone preferences in your user account.

Time Position Orientation Groundspeed Altitude Reporting Facility
EDT Latitude Longitude Course Direction KTS MPH feet Rate Location/Type
11:30AM 44.3925 -73.1431 195° South 203 234 4,800  Level Boston Center
11:31AM 44.1180 -73.2808 195° South  Level FlightAware Approximate
11:31AM 44.3297 -73.1686 196° South 220 253 7,100  Level Boston Center
11:32AM 44.0302 -73.3122 194° South  Level FlightAware Approximate
11:32AM 44.2567 -73.1994 197° South 259 298 10,000  Level Boston Center
11:33AM 43.9420 -73.3416 193° South  Level FlightAware Approximate
11:33AM 44.1753 -73.2331 196° South 299 344 11,700  Level Boston Center
11:34AM 43.8543 -73.3735 195° South  Level FlightAware Approximate
11:34AM 44.0708 -73.2753 196° South 347 399 14,800  Level Boston Center
11:35AM 43.7668 -73.4063 195° South  Level FlightAware Approximate
11:35AM 43.9725 -73.3142 196° South 361 415 17,000  Level Boston Center
11:36AM 43.8761 -73.3733 204° Southwest 373 429 19,000 1,900 Climbing Boston Center
11:37AM 43.7922 -73.4553 215° Southwest 373 429 20,800 1,750 Climbing Boston Center
11:38AM 43.6997 -73.5456 215° Southwest 400 460 22,500 1,650 Climbing Boston Center
11:39AM 43.6008 -73.6356 213° Southwest 412 474 24,100 1,488 Climbing Boston Center
11:40AM 43.5039 -73.7281 215° Southwest 422 486 25,500 950 Climbing Boston Center
11:41AM 43.4008 -73.8231 214° Southwest 440 506 26,000 252 Climbing Boston Center
11:42AM 43.3017 -73.9208 216° Southwest 447 514 26,000  Level Boston Center
11:43AM 43.2214 -73.9986 215° Southwest 447 514 26,000  Level Boston Center
11:44AM 43.0925 -74.1175 214° Southwest 447 514 26,000  Level Boston Center
11:45AM 42.9911 -74.2114 214° Southwest 447 514 26,000  Level Boston Center
11:46AM 42.8917 -74.3047 215° Southwest 447 514 26,000  Level Boston Center
11:47AM 42.7919 -74.3981 214° Southwest 447 514 26,000  Level Boston Center
11:48AM 42.6925 -74.4908 214° Southwest 447 514 26,000  Level Boston Center
11:49AM 42.5717 -74.5997 214° Southwest 447 514 26,000 -50 Level Boston Center
11:50AM 42.4719 -74.6919 214° Southwest 447 514 25,900 -1,625 Descending Boston Center
11:52AM 42.2686 -74.8761 214° Southwest 422 486 20,800 -2,156 Descending New York Center
11:53AM 42.1783 -74.9572 214° Southwest 409 471 19,000 -915 Descending New York Center
11:54AM 42.0797 -75.0431 213° Southwest 399 459 19,000  Level New York Center
11:55AM 41.9897 -75.1156 211° Southwest 393 452 19,000  Level New York Center
11:56AM 41.8953 -75.1900 210° Southwest 393 452 19,000 -454 Level New York Center
11:57AM 41.8158 -75.2572 212° Southwest 393 452 18,100 -1,289 Descending New York Center
11:58AM 41.7169 -75.3367 211° Southwest 388 447 16,400 -1,525 Descending New York Center
11:59AM 41.6331 -75.4031 211° Southwest 374 430 15,000 -1,339 Descending New York Center
12:00PM 41.5492 -75.4694 211° Southwest 369 425 13,700 -1,373 Descending New York Center
12:01PM 41.4739 -75.5306 211° Southwest 357 411 12,300 -864 Descending New York Center
12:02PM 41.3922 -75.5967 211° Southwest 349 402 12,000 -148 Descending New York Center
12:03PM 41.3019 -75.6647 210° Southwest 349 402 12,000  Level New York Center
12:04PM 41.2114 -75.6883 191° South 341 392 12,000 -303 Level New York Center
12:05PM 41.1156 -75.6897 181° South 340 391 11,400 -1,000 Descending New York Center
12:06PM 41.0217 -75.6883 179° South 340 391 10,000 -694 Descending New York Center
12:07PM 40.9383 -75.6878 180° South 345 397 10,000  Level New York Center
12:08PM 40.8344 -75.6858 179° South 345 397 10,000  Level New York Center
12:09PM 40.7406 -75.6847 179° South 345 397 10,000  Level New York Center
12:10PM 40.6550 -75.6867 181° South 345 397 10,000  Level New York Center
12:11PM 40.5672 -75.6475 161° South 345 397 10,000  Level New York Center
12:12PM 40.5128 -75.5483 126° Southeast 321 369 10,000  Level New York Center
12:13PM 40.4506 -75.4375 126° Southeast 338 389 10,000 -353 Level New York Center
12:14PM 40.3775 -75.4381 180° South 289 333 9,300 -718 Descending New York Center
12:15PM 40.3022 -75.4467 185° South 270 311 8,600 -1,131 Descending New York Center
12:16PM 40.2206 -75.4575 186° South 276 318 7,000 -900 Descending New York Center
12:17PM 40.1386 -75.4708 187° South 287 330 6,800 -508 Descending New York Center
12:18PM 40.0714 -75.4825 188° South 280 322 6,000 -397 Descending New York Center
12:19PM 40.0011 -75.5239 204° Southwest 263 303 6,000  Level New York Center
12:20PM 39.9561 -75.5561 209° Southwest 228 262 6,000  Level New York Center
12:21PM 39.9022 -75.5931 208° Southwest 207 238 6,000 -492 Level New York Center
12:22PM 39.8617 -75.6200 207° Southwest 202 232 5,000 -878 Descending New York Center
12:23PM 39.8167 -75.6167 177° South 185 213 4,200 -590 Descending Philadelphia TRACON
12:24PM 39.8000 -75.5500 108° East 182 209 3,800 -400 Descending Philadelphia TRACON
12:25PM 39.8167 -75.4833 72° East 188 216 3,400 -650 Descending Philadelphia TRACON
12:26PM 39.8333 -75.4333 67° East 165 190 2,500 -900 Descending Philadelphia TRACON